{"data":{"norad_id":55922,"epoch":"2026-09-19T04:46:39.767232Z","epoch_age_seconds":215462,"freshness":"STALE","line1":"1 55922U 23037J   26262.19907138 -.00000038  00000+0  45981-5 0  9997","line2":"2 55922  70.0003 176.5256 0003071 273.0464  87.0344 14.98330330192477","mean_motion":14.9833033,"eccentricity":0.0003071,"inclination_deg":70.0003,"raan_deg":176.5256,"arg_perigee_deg":273.0464,"mean_anomaly_deg":87.0344,"bstar":4.5981e-6,"rev_number":19247,"period_min":96.106977958592,"perigee_km":569.92046652341,"apogee_km":574.18927437024,"semimajor_km":6950.1918704468,"source":"CELESTRAK","updated_at":"2026-09-21T09:00:33.323635Z"}}